Radiation Dose at Monitoring Post of Fukushima Daini Nuclear Power Station
Date,Time,MP-1(microSv/h),MP-2(microSv/h),MP-3(microSv/h),MP-4(microSv/h),MP-5(microSv/h),MP-6(microSv/h),MP-7(microSv/h),Wind Direction,Wind Velocity(m/s),Rain
2020/04/09,00:00,0.181,0.164,0.272,0.248,0.258,0.139,0.086,north,6.5,No
2020/04/09,00:10,0.180,0.164,0.270,0.247,0.257,0.139,0.085,north,6.2,No
2020/04/09,00:20,0.181,0.164,0.271,0.249,0.257,0.140,0.084,north-northwest,5.3,No
2020/04/09,00:30,0.181,0.164,0.273,0.247,0.258,0.139,0.085,north-northwest,6.4,No
2020/04/09,00:40,0.181,0.164,0.271,0.247,0.258,0.139,0.085,north-northwest,6.0,No
2020/04/09,00:50,0.181,0.163,0.272,0.249,0.258,0.139,0.085,north-northwest,6.2,No
2020/04/09,01:00,0.181,0.163,0.272,0.247,0.258,0.139,0.085,north-northwest,6.2,No
2020/04/09,01:10,0.180,0.164,0.272,0.249,0.258,0.140,0.085,north-northwest,6.3,No
2020/04/09,01:20,0.180,0.163,0.271,0.248,0.257,0.140,0.085,north-northwest,7.4,No
2020/04/09,01:30,0.181,0.164,0.271,0.249,0.258,0.139,0.085,north-northwest,6.9,No
2020/04/09,01:40,0.180,0.165,0.272,0.247,0.257,0.139,0.085,north-northwest,6.3,No
2020/04/09,01:50,0.180,0.164,0.272,0.247,0.257,0.138,0.085,northwest,7.7,No
2020/04/09,02:00,0.180,0.164,0.269,0.246,0.258,0.139,0.085,northwest,7.3,No
2020/04/09,02:10,0.181,0.164,0.272,0.248,0.258,0.139,0.085,west-northwest,7.0,No
2020/04/09,02:20,0.181,0.163,0.270,0.248,0.257,0.139,0.085,northwest,6.1,No
2020/04/09,02:30,0.180,0.163,0.270,0.247,0.257,0.139,0.085,northwest,5.5,No
2020/04/09,02:40,0.179,0.163,0.271,0.248,0.258,0.138,0.084,north-northwest,4.0,No
2020/04/09,02:50,0.181,0.162,0.271,0.247,0.257,0.138,0.084,north-northwest,5.9,No
2020/04/09,03:00,0.180,0.163,0.269,0.247,0.258,0.139,0.085,north-northwest,5.4,No
2020/04/09,03:10,0.180,0.164,0.270,0.247,0.256,0.139,0.084,north-northwest,7.1,No
2020/04/09,03:20,0.179,0.162,0.270,0.247,0.258,0.138,0.084,north-northwest,8.4,No
2020/04/09,03:30,0.179,0.162,0.271,0.246,0.258,0.139,0.085,northwest,9.0,No
2020/04/09,03:40,0.180,0.162,0.270,0.247,0.257,0.139,0.083,northwest,10.1,No
2020/04/09,03:50,0.180,0.163,0.271,0.247,0.258,0.139,0.085,northwest,9.0,No
2020/04/09,04:00,0.178,0.162,0.271,0.247,0.258,0.138,0.084,northwest,9.0,No
2020/04/09,04:10,0.180,0.164,0.271,0.247,0.259,0.138,0.084,northwest,8.6,No
2020/04/09,04:20,0.180,0.164,0.271,0.247,0.259,0.140,0.084,northwest,7.0,No
2020/04/09,04:30,0.180,0.163,0.272,0.246,0.258,0.138,0.084,north-northwest,6.6,No
2020/04/09,04:40,0.181,0.164,0.271,0.248,0.259,0.139,0.084,north-northwest,6.5,No
2020/04/09,04:50,0.180,0.164,0.272,0.247,0.258,0.139,0.084,north-northwest,6.2,No
2020/04/09,05:00,0.180,0.164,0.271,0.246,0.257,0.139,0.084,northwest,5.7,No
2020/04/09,05:10,0.180,0.165,0.271,0.247,0.258,0.139,0.084,north-northwest,7.3,No
2020/04/09,05:20,0.180,0.164,0.272,0.247,0.258,0.140,0.085,northwest,5.7,No
2020/04/09,05:30,0.180,0.163,0.272,0.247,0.257,0.138,0.085,north-northwest,4.9,No
2020/04/09,05:40,0.180,0.163,0.272,0.247,0.259,0.140,0.084,north,7.0,No
2020/04/09,05:50,0.180,0.164,0.272,0.248,0.259,0.139,0.084,north-northwest,6.8,No
2020/04/09,06:00,0.179,0.163,0.272,0.246,0.257,0.140,0.085,north-northwest,8.5,No
2020/04/09,06:10,0.181,0.163,0.271,0.247,0.258,0.138,0.084,north-northwest,8.7,No
2020/04/09,06:20,0.180,0.163,0.270,0.245,0.258,0.139,0.085,north-northwest,8.6,No
2020/04/09,06:30,0.181,0.164,0.271,0.247,0.258,0.138,0.084,north-northwest,7.5,No
2020/04/09,06:40,0.180,0.163,0.272,0.247,0.256,0.139,0.084,north-northwest,7.0,No
2020/04/09,06:50,0.181,0.163,0.271,0.247,0.257,0.138,0.085,north-northwest,5.4,No
2020/04/09,07:00,0.180,0.163,0.272,0.248,0.257,0.138,0.084,north-northwest,5.5,No
2020/04/09,07:10,0.180,0.162,0.272,0.246,0.259,0.140,0.084,north-northwest,5.5,No
2020/04/09,07:20,0.180,0.163,0.271,0.248,0.256,0.139,0.084,north-northwest,6.2,No
2020/04/09,07:30,0.181,0.162,0.272,0.248,0.259,0.139,0.084,north-northwest,5.7,No
2020/04/09,07:40,0.182,0.164,0.272,0.246,0.258,0.137,0.084,north-northwest,4.6,No
2020/04/09,07:50,0.180,0.164,0.271,0.248,0.258,0.138,0.084,north,4.8,No
2020/04/09,08:00,0.180,0.162,0.273,0.246,0.259,0.140,0.084,north,3.2,No
2020/04/09,08:10,0.180,0.162,0.270,0.247,0.257,0.139,0.084,north-northeast,4.7,No
2020/04/09,08:20,0.180,0.162,0.271,0.246,0.259,0.138,0.085,north,5.7,No
2020/04/09,08:30,0.181,0.162,0.272,0.247,0.257,0.139,0.083,north-northeast,5.1,No
2020/04/09,08:40,0.180,0.163,0.270,0.247,0.259,0.139,0.084,north,4.2,No
2020/04/09,08:50,0.180,0.163,0.272,0.246,0.258,0.139,0.084,north-northeast,4.1,No
2020/04/09,09:00,0.180,0.164,0.271,0.247,0.257,0.138,0.084,northeast,4.8,No
2020/04/09,09:10,0.180,0.163,0.272,0.247,0.260,0.139,0.083,northeast,4.4,No
2020/04/09,09:20,0.181,0.162,0.271,0.248,0.256,0.138,0.085,northeast,5.7,No
2020/04/09,09:30,0.178,0.162,0.271,0.245,0.258,0.139,0.084,east-northeast,5.3,No
2020/04/09,09:40,0.180,0.163,0.270,0.247,0.257,0.138,0.084,northeast,5.1,No
2020/04/09,09:50,0.178,0.162,0.269,0.245,0.259,0.138,0.084,northeast,5.6,No
2020/04/09,10:00,0.180,0.162,0.271,0.246,0.257,0.138,0.084,northeast,6.9,No
2020/04/09,10:10,0.179,0.162,0.269,0.245,0.259,0.139,0.083,northeast,6.9,No
2020/04/09,10:20,0.180,0.163,0.271,0.246,0.256,0.139,0.084,northeast,4.7,No
2020/04/09,10:30,0.179,0.162,0.269,0.247,0.258,0.138,0.084,east-northeast,5.9,No
2020/04/09,10:40,0.180,0.162,0.272,0.247,0.257,0.139,0.084,northeast,6.6,No
2020/04/09,10:50,0.181,0.163,0.270,0.247,0.259,0.139,0.084,northeast,5.7,No
2020/04/09,11:00,0.180,0.161,0.271,0.246,0.257,0.138,0.084,east-northeast,6.4,No
2020/04/09,11:10,0.180,0.162,0.271,0.248,0.258,0.138,0.084,east-northeast,5.9,No
2020/04/09,11:20,0.180,0.162,0.272,0.246,0.257,0.138,0.084,east-northeast,5.7,No
2020/04/09,11:30,0.181,0.163,0.270,0.248,0.257,0.139,0.085,east-northeast,4.4,No
2020/04/09,11:40,0.180,0.162,0.274,0.247,0.259,0.139,0.084,northeast,5.2,No
2020/04/09,11:50,0.179,0.164,0.270,0.247,0.256,0.139,0.085,northeast,3.6,No
2020/04/09,12:00,0.180,0.163,0.271,0.245,0.259,0.138,0.084,northeast,4.3,No
2020/04/09,12:10,0.180,0.163,0.270,0.247,0.256,0.138,0.084,northeast,4.0,No
2020/04/09,12:20,0.182,0.163,0.274,0.247,0.259,0.139,0.084,east-northeast,4.3,No
2020/04/09,12:30,0.179,0.163,0.271,0.247,0.256,0.139,0.084,northeast,3.7,No
2020/04/09,12:40,0.182,0.162,0.273,0.248,0.257,0.139,0.085,east-northeast,3.2,No
2020/04/09,12:50,0.179,0.162,0.269,0.246,0.257,0.139,0.085,east-northeast,3.6,No
2020/04/09,13:00,0.180,0.163,0.272,0.247,0.257,0.139,0.083,east-northeast,2.6,No
2020/04/09,13:10,0.180,0.163,0.271,0.246,0.258,0.138,0.084,east-northeast,3.0,No
2020/04/09,13:20,0.181,0.162,0.272,0.249,0.256,0.139,0.085,east,2.1,No
2020/04/09,13:30,0.180,0.161,0.271,0.247,0.260,0.140,0.084,east,3.0,No
2020/04/09,13:40,0.180,0.162,0.272,0.247,0.256,0.140,0.084,east-southeast,3.3,No
2020/04/09,13:50,0.180,0.162,0.271,0.248,0.259,0.139,0.084,east,4.6,No
2020/04/09,14:00,0.180,0.163,0.272,0.247,0.258,0.139,0.085,east-southeast,3.2,No
2020/04/09,14:10,0.180,0.162,0.271,0.248,0.259,0.139,0.085,east-southeast,3.0,No
2020/04/09,14:20,0.179,0.163,0.273,0.248,0.258,0.139,0.085,east,2.1,No
2020/04/09,14:30,0.181,0.164,0.271,0.249,0.259,0.138,0.085,east-southeast,1.9,No
2020/04/09,14:40,0.179,0.163,0.272,0.247,0.259,0.138,0.084,east,2.5,No
2020/04/09,14:50,0.180,0.162,0.272,0.248,0.257,0.140,0.084,east,2.1,No
2020/04/09,15:00,0.180,0.163,0.272,0.249,0.259,0.138,0.085,east-southeast,1.1,No
2020/04/09,15:10,0.180,0.163,0.272,0.249,0.256,0.139,0.084,east,2.6,No
2020/04/09,15:20,0.180,0.162,0.271,0.247,0.258,0.139,0.085,southeast,1.5,No
2020/04/09,15:30,0.180,0.164,0.274,0.248,0.258,0.139,0.084,east,0.6,No
2020/04/09,15:40,0.181,0.163,0.273,0.250,0.260,0.139,0.085,east-southeast,0.9,No
2020/04/09,15:50,0.181,0.163,0.272,0.248,0.258,0.140,0.085,east-southeast,1.1,No
2020/04/09,16:00,0.181,0.165,0.273,0.248,0.258,0.139,0.084,east,1.2,No
2020/04/09,16:10,0.181,0.164,0.272,0.249,0.259,0.139,0.085,southeast,1.2,No
2020/04/09,16:20,0.180,0.163,0.273,0.246,0.258,0.139,0.085,east-southeast,1.3,No
2020/04/09,16:30,0.182,0.163,0.273,0.248,0.260,0.139,0.084,south,2.0,No
2020/04/09,16:40,0.181,0.164,0.272,0.248,0.257,0.140,0.084,south,1.9,No
2020/04/09,16:50,0.181,0.163,0.272,0.248,0.260,0.140,0.084,east-southeast,0.9,No
2020/04/09,17:00,0.181,0.165,0.271,0.249,0.258,0.139,0.084,south-southeast,0.7,No
2020/04/09,17:10,0.181,0.164,0.274,0.248,0.258,0.139,0.085,south-southeast,0.6,No
2020/04/09,17:20,0.181,0.164,0.272,0.249,0.260,0.139,0.085,south-southeast,0.7,No
2020/04/09,17:30,0.181,0.164,0.272,0.248,0.258,0.140,0.084,south-southeast,0.6,No
2020/04/09,17:40,0.180,0.163,0.274,0.249,0.258,0.140,0.085,-,CALM,No
2020/04/09,17:50,0.181,0.163,0.272,0.249,0.259,0.139,0.085,-,CALM,No
2020/04/09,18:00,0.180,0.164,0.271,0.249,0.259,0.139,0.084,east,0.9,No
2020/04/09,18:10,0.180,0.163,0.274,0.248,0.259,0.139,0.084,-,CALM,No
2020/04/09,18:20,0.180,0.164,0.271,0.250,0.258,0.140,0.085,south-southwest,0.9,No
2020/04/09,18:30,0.181,0.165,0.272,0.250,0.257,0.139,0.085,-,CALM,No
2020/04/09,18:40,0.181,0.163,0.273,0.248,0.259,0.140,0.085,south-southeast,0.8,No
2020/04/09,18:50,0.182,0.164,0.273,0.249,0.257,0.140,0.085,south-southeast,0.7,No
2020/04/09,19:00,0.181,0.163,0.272,0.248,0.258,0.139,0.084,south-southwest,1.0,No
2020/04/09,19:10,0.182,0.164,0.274,0.249,0.258,0.140,0.084,south-southwest,1.4,No
2020/04/09,19:20,0.182,0.164,0.273,0.249,0.258,0.139,0.084,south-southwest,1.2,No
2020/04/09,19:30,0.179,0.165,0.272,0.250,0.258,0.139,0.085,south,1.8,No
2020/04/09,19:40,0.181,0.163,0.272,0.249,0.257,0.139,0.084,south,2.2,No
2020/04/09,19:50,0.181,0.163,0.272,0.248,0.258,0.139,0.085,south,2.1,No
2020/04/09,20:00,0.181,0.164,0.272,0.250,0.260,0.139,0.084,south,3.5,No
2020/04/09,20:10,0.180,0.164,0.271,0.249,0.258,0.140,0.084,south-southwest,3.5,No
2020/04/09,20:20,0.180,0.163,0.273,0.247,0.257,0.139,0.085,south,4.1,No
2020/04/09,20:30,0.182,0.164,0.273,0.249,0.258,0.140,0.085,south,4.3,No
2020/04/09,20:40,0.181,0.164,0.273,0.250,0.257,0.140,0.084,south,4.0,No
2020/04/09,20:50,0.181,0.163,0.272,0.248,0.258,0.140,0.085,south-southeast,3.4,No
2020/04/09,21:00,0.181,0.164,0.272,0.249,0.259,0.139,0.085,south-southeast,3.1,No
2020/04/09,21:10,0.181,0.164,0.272,0.250,0.258,0.139,0.084,south-southeast,3.0,No
2020/04/09,21:20,0.180,0.163,0.273,0.248,0.259,0.140,0.085,south-southeast,3.4,No
2020/04/09,21:30,0.181,0.164,0.272,0.249,0.259,0.139,0.085,south-southeast,1.6,No
2020/04/09,21:40,0.180,0.164,0.272,0.249,0.257,0.140,0.084,south-southeast,1.6,No
2020/04/09,21:50,0.180,0.164,0.274,0.248,0.259,0.139,0.085,south-southeast,3.2,No
2020/04/09,22:00,0.180,0.164,0.273,0.249,0.259,0.140,0.085,south-southeast,2.0,No
2020/04/09,22:10,0.181,0.164,0.271,0.249,0.258,0.140,0.085,south-southeast,2.8,No
2020/04/09,22:20,0.181,0.165,0.274,0.249,0.259,0.139,0.085,south-southeast,1.9,No
2020/04/09,22:30,0.181,0.164,0.271,0.248,0.259,0.140,0.085,south,1.6,No
2020/04/09,22:40,0.181,0.164,0.272,0.249,0.258,0.140,0.085,south,1.8,No
2020/04/09,22:50,0.182,0.164,0.273,0.249,0.259,0.139,0.085,south,3.1,No
2020/04/09,23:00,0.181,0.164,0.272,0.248,0.258,0.140,0.085,south,3.3,No
2020/04/09,23:10,0.181,0.164,0.273,0.249,0.259,0.140,0.084,south,2.9,No
2020/04/09,23:20,0.181,0.164,0.272,0.249,0.259,0.140,0.084,south,1.7,No
2020/04/09,23:30,0.181,0.164,0.272,0.249,0.258,0.140,0.084,south,1.6,No
2020/04/09,23:40,0.180,0.163,0.271,0.249,0.259,0.139,0.085,south-southeast,1.5,No
2020/04/09,23:50,0.182,0.164,0.272,0.249,0.260,0.139,0.085,south-southwest,1.0,No
